User: anonymous   Login
Location: Unspecified
(0.0000°N, 0.0000°E)
Time: 19:18:48
(UTC+00:00)
Language:

GALILEO 11 (268) - Orbit

View from above orbital plane
View from above orbital plane
View from above satellite
View from above satellite

Ground track
Ground track

The orbit data is extracted from the following two-line orbital elements,

1 41175U 15079B   18139.74185279  .00000049  00000-0  00000+0 0  9997
2 41175  54.9180 182.4164 0005445 286.9565  73.0597  1.70473891 15065
Epoch (UTC): 19 May 2018 17:48:16
Eccentricity: 0.0005445
inclination: 54.9180°
perigee height: 23206 km
apogee height: 23238 km
right ascension of ascending node: 182.4164°
argument of perigee: 286.9565°
revolutions per day: 1.70473891
mean anomaly at epoch: 73.0597°
orbit number at epoch: 1506

The dashed part of the orbit path shows where the satellite is in the earth's shadow,  

DLR